When you browse on this site, cookies collect data to enhance your experience and personalize the content and advertising you see.
Visit our Privacy Policy to learn more. By continuing to use the site, you agree to this use of cookies and data.
  • en Suisse
  • Liste des pays
  • À 7 jours
  • Température de l'eau
  • Carte météo
  • Widgets météo
  • user-avatar
    Se connecter

    Météo par heure à Ordino

    Ce jour, 20 Novembre, Mercredi

    Heure Température Précipitation Vent Pression Humidité
    00:00 -3°C° 0 mm 1 m/s 627 mmHg 69%
    01:00 -3°C° 0 mm 1 m/s 626 mmHg 67%
    02:00 -3°C° 0 mm 1 m/s 626 mmHg 64%
    03:00 -5°C° 0 mm 2 m/s 626 mmHg 62%
    04:00 -4°C° 0 mm 2 m/s 625 mmHg 59%
    05:00 -2°C° 0 mm 1 m/s 625 mmHg 56%
    06:00 -2°C° 0 mm 1 m/s 625 mmHg 53%
    07:00 -1°C° 0 mm 1 m/s 626 mmHg 50%
    08:00 0°C° 0 mm 1 m/s 626 mmHg 48%
    09:00 +1°C° 0 mm 2 m/s 627 mmHg 45%
    10:00 +2°C° 0 mm 2 m/s 627 mmHg 46%
    11:00 +2°C° 0 mm 2 m/s 627 mmHg 46%
    12:00 +3°C° 0 mm 2 m/s 627 mmHg 46%
    13:00 +3°C° 0 mm 2 m/s 626 mmHg 52%
    14:00 +2°C° 0 mm 2 m/s 626 mmHg 57%
    15:00 +1°C° 0 mm 2 m/s 625 mmHg 63%
    16:00 -1°C° 0 mm 2 m/s 624 mmHg 69%
    17:00 -3°C° 0 mm 2 m/s 624 mmHg 75%
    18:00 -4°C° 0 mm 2 m/s 623 mmHg 80%
    19:00 -4°C° 0 mm 2 m/s 623 mmHg 81%
    20:00 -4°C° 0 mm 2 m/s 623 mmHg 81%
    21:00 -5°C° 0 mm 2 m/s 623 mmHg 81%
    22:00 -5°C° 0 mm 2 m/s 623 mmHg 82%
    23:00 -5°C° 0 mm 2 m/s 623 mmHg 83%

    Demain, 21 Novembre, Jeudi

    Heure Température Précipitation Vent Pression Humidité
    00:00 -5°C° 0 mm 2 m/s 622 mmHg 83%
    01:00 -4°C° 0 mm 2 m/s 622 mmHg 83%
    02:00 -2°C° 0 mm 1 m/s 622 mmHg 82%
    03:00 -2°C° 0 mm 1 m/s 622 mmHg 81%
    04:00 -2°C° 0 mm 1 m/s 622 mmHg 83%
    05:00 -2°C° 0 mm 1 m/s 622 mmHg 86%
    06:00 -2°C° 0 mm 1 m/s 622 mmHg 88%
    07:00 0°C° 0 mm 1 m/s 623 mmHg 85%
    08:00 +1°C° 0 mm 1 m/s 623 mmHg 82%
    09:00 +2°C° 0 mm 1 m/s 624 mmHg 78%
    10:00 +2°C° 0 mm 1 m/s 624 mmHg 77%
    11:00 +3°C° 0 mm 1 m/s 624 mmHg 75%
    12:00 +4°C° 0 mm 1 m/s 624 mmHg 73%
    13:00 +3°C° 0 mm 1 m/s 624 mmHg 75%
    14:00 +3°C° 0 mm 1 m/s 624 mmHg 76%
    15:00 +3°C° 0 mm 1 m/s 624 mmHg 77%
    16:00 +1°C° 0 mm 1 m/s 623 mmHg 82%
    17:00 0°C° 0 mm 1 m/s 623 mmHg 87%
    18:00 -1°C° 0 mm 1 m/s 623 mmHg 92%
    19:00 -1°C° 0 mm 1 m/s 623 mmHg 92%
    20:00 -1°C° 0 mm 1 m/s 623 mmHg 91%
    21:00 -1°C° 0 mm 1 m/s 623 mmHg 91%
    22:00 -1°C° 0 mm 1 m/s 623 mmHg 91%
    23:00 -3°C° 0 mm 2 m/s 623 mmHg 91%

    Après-demain, 22 Novembre, Vendredi

    Heure Température Précipitation Vent Pression Humidité
    00:00 -3°C° 0 mm 2 m/s 623 mmHg 90%
    01:00 -3°C° 0 mm 2 m/s 623 mmHg 90%
    02:00 -3°C° 0 mm 2 m/s 622 mmHg 89%
    03:00 -3°C° 0 mm 2 m/s 622 mmHg 88%
    04:00 -3°C° 0 mm 2 m/s 622 mmHg 87%
    05:00 -3°C° 0 mm 2 m/s 622 mmHg 85%
    06:00 -3°C° 0 mm 2 m/s 621 mmHg 84%
    07:00 -2°C° 0.1 mm 3 m/s 621 mmHg 84%
    08:00 -1°C° 0.1 mm 3 m/s 621 mmHg 83%
    09:00 0°C° 0.1 mm 3 m/s 621 mmHg 83%
    10:00 -1°C° 0.3 mm 4 m/s 621 mmHg 85%
    11:00 0°C° 0.3 mm 4 m/s 620 mmHg 87%
    12:00 0°C° 0.3 mm 4 m/s 620 mmHg 89%
    13:00 0°C° 0.5 mm 4 m/s 619 mmHg 91%
    14:00 0°C° 0.5 mm 4 m/s 618 mmHg 93%
    15:00 0°C° 0.5 mm 4 m/s 617 mmHg 95%
    16:00 0°C° 2.1 mm 4 m/s 616 mmHg 95%
    17:00 0°C° 2.1 mm 4 m/s 616 mmHg 95%
    18:00 0°C° 2.1 mm 4 m/s 615 mmHg 95%
    19:00 0°C° 3.3 mm 4 m/s 615 mmHg 95%
    20:00 0°C° 3.3 mm 4 m/s 614 mmHg 95%
    21:00 +1°C° 3.3 mm 3 m/s 614 mmHg 95%
    22:00 +1°C° 2.2 mm 3 m/s 613 mmHg 96%
    23:00 +1°C° 2.2 mm 3 m/s 613 mmHg 97%

    23 Novembre, Samedi

    Heure Température Précipitation Vent Pression Humidité
    00:00 +1°C° 2.2 mm 3 m/s 613 mmHg 97%
    01:00 +1°C° 0.1 mm 3 m/s 613 mmHg 97%
    02:00 +1°C° 0.1 mm 3 m/s 612 mmHg 96%
    03:00 +1°C° 0.1 mm 2 m/s 612 mmHg 96%
    04:00 +1°C° 0 mm 2 m/s 612 mmHg 95%
    05:00 +1°C° 0 mm 1 m/s 613 mmHg 95%
    06:00 +1°C° 0 mm 1 m/s 613 mmHg 95%
    07:00 +2°C° 0.1 mm 1 m/s 614 mmHg 94%
    08:00 +2°C° 0.1 mm 1 m/s 615 mmHg 94%
    09:00 +3°C° 0.1 mm 1 m/s 615 mmHg 93%
    10:00 +3°C° 0.2 mm 1 m/s 616 mmHg 92%
    11:00 +4°C° 0.2 mm 1 m/s 616 mmHg 91%
    12:00 +5°C° 0.2 mm 1 m/s 617 mmHg 90%
    13:00 +4°C° 0.3 mm 1 m/s 617 mmHg 92%
    14:00 +4°C° 0.3 mm 1 m/s 617 mmHg 94%
    15:00 +4°C° 0.3 mm 1 m/s 617 mmHg 96%
    16:00 +3°C° 1 mm 1 m/s 618 mmHg 97%
    17:00 +2°C° 1 mm 1 m/s 618 mmHg 97%
    18:00 +2°C° 1 mm 1 m/s 619 mmHg 97%
    19:00 +2°C° 1.3 mm 1 m/s 619 mmHg 97%
    20:00 +2°C° 1.3 mm 1 m/s 620 mmHg 97%
    21:00 +2°C° 1.3 mm 1 m/s 621 mmHg 97%
    22:00 -1°C° 1.1 mm 2 m/s 621 mmHg 97%
    23:00 -1°C° 1.1 mm 2 m/s 621 mmHg 96%

    24 Novembre, Dimanche

    Heure Température Précipitation Vent Pression Humidité
    00:00 -1°C° 1.1 mm 2 m/s 622 mmHg 96%
    01:00 -1°C° 1.1 mm 2 m/s 622 mmHg 96%
    02:00 -2°C° 1.1 mm 2 m/s 622 mmHg 95%
    03:00 -2°C° 1.1 mm 2 m/s 622 mmHg 95%
    04:00 -1°C° 1.5 mm 2 m/s 623 mmHg 95%
    05:00 -1°C° 1.5 mm 2 m/s 623 mmHg 95%
    06:00 -1°C° 1.5 mm 2 m/s 624 mmHg 96%
    07:00 -1°C° 1.8 mm 2 m/s 625 mmHg 96%
    08:00 +1°C° 1.8 mm 2 m/s 625 mmHg 96%
    09:00 +2°C° 1.8 mm 2 m/s 626 mmHg 96%
    10:00 +2°C° 0.7 mm 2 m/s 626 mmHg 96%
    11:00 +2°C° 0.7 mm 2 m/s 627 mmHg 96%
    12:00 +3°C° 0.7 mm 2 m/s 627 mmHg 95%
    13:00 +3°C° 0.5 mm 2 m/s 627 mmHg 95%
    14:00 +3°C° 0.5 mm 2 m/s 628 mmHg 95%
    15:00 +3°C° 0.5 mm 2 m/s 628 mmHg 95%
    16:00 +2°C° 0.4 mm 2 m/s 628 mmHg 95%
    17:00 +2°C° 0.4 mm 2 m/s 629 mmHg 96%
    18:00 +1°C° 0.4 mm 2 m/s 629 mmHg 96%
    19:00 +1°C° 0.1 mm 2 m/s 629 mmHg 96%
    20:00 +1°C° 0.1 mm 2 m/s 630 mmHg 96%
    21:00 +1°C° 0.1 mm 2 m/s 630 mmHg 96%
    22:00 +1°C° 0 mm 2 m/s 630 mmHg 95%
    23:00 +2°C° 0 mm 1 m/s 630 mmHg 95%

    25 Novembre, Lundi

    Heure Température Précipitation Vent Pression Humidité
    00:00 +1°C° 0 mm 1 m/s 630 mmHg 94%
    01:00 +1°C° 0 mm 1 m/s 630 mmHg 92%
    02:00 +1°C° 0 mm 1 m/s 630 mmHg 89%
    03:00 0°C° 0 mm 1 m/s 629 mmHg 87%
    04:00 -2°C° 0 mm 2 m/s 629 mmHg 84%
    05:00 -1°C° 0 mm 2 m/s 629 mmHg 82%
    06:00 -1°C° 0 mm 2 m/s 630 mmHg 80%
    07:00 +1°C° 0 mm 2 m/s 630 mmHg 81%
    08:00 +2°C° 0 mm 2 m/s 631 mmHg 82%
    09:00 +4°C° 0 mm 2 m/s 632 mmHg 83%
    10:00 +5°C° 0 mm 1 m/s 632 mmHg 84%
    11:00 +6°C° 0 mm 1 m/s 632 mmHg 84%
    12:00 +7°C° 0 mm 1 m/s 632 mmHg 85%
    13:00 +7°C° 0 mm 1 m/s 632 mmHg 86%
    14:00 +6°C° 0 mm 1 m/s 632 mmHg 86%
    15:00 +6°C° 0 mm 1 m/s 632 mmHg 87%
    16:00 +4°C° 0 mm 2 m/s 632 mmHg 89%
    17:00 +4°C° 0 mm 2 m/s 632 mmHg 90%
    18:00 +3°C° 0 mm 2 m/s 632 mmHg 91%
    19:00 +3°C° 0 mm 2 m/s 632 mmHg 92%
    20:00 +3°C° 0 mm 2 m/s 632 mmHg 92%
    21:00 +3°C° 0 mm 2 m/s 632 mmHg 92%
    22:00 +3°C° 0 mm 2 m/s 632 mmHg 91%
    23:00 +3°C° 0 mm 2 m/s 632 mmHg 91%
    Voir plus